Wheeling, WV

8:21 AM EDT on July 29, 2017 (GMT -0400)
Wheeling-Ohio County

Weather History for KHLG - February, 2014

Change the Weather History Date:

Tuesday, February 18, 2014

  Actual Average Record
Temperature  
Mean Temperature 40 °F 32 °F  
Max Temperature 46 °F 40 °F 68 °F (2017)
Min Temperature 33 °F 24 °F 5 °F (2006)
Degree Days  
Heating Degree Days 25 33  
Month to date heating degree days 713 612  
Since 1 July heating degree days 4118 3854  
Cooling Degree Days 0    
Month to date cooling degree days 0  
Year to date cooling degree days 0  
Moisture  
Dew Point 27 °F    
Average Humidity 65    
Maximum Humidity 89    
Minimum Humidity 41    
Precipitation  
Precipitation 0.02 in 0.08 in 0.84 in (2000)
Month to date precipitation 1.28 1.36  
Sea Level Pressure  
Sea Level Pressure 29.92 in    
Wind  
Wind Speed 15 mph (SW)    
Max Wind Speed 32 mph    
Max Gust Speed 51 mph    
Visibility 8 miles    
Events Rain , Snow    
T = Trace of Precipitation, MM = Missing Value Source: NWS Daily Summary

Daily Weather History Graph

Daily Weather History Graph

Search for Another Location

Airport or City:

Trip Planner

Search our weather history database for the weather conditions in past years. The results will help you decide how hot, cold, wet, or windy it might be!

Date:

Astronomy

Feb. 18, 2014 Rise Set
Actual Time 7:11 AM EST 6:01 PM EST
Civil Twilight 6:44 AM EST 6:29 PM EST
Nautical Twilight 6:12 AM EST 7:01 PM EST
Astronomical Twilight 5:41 AM EST 7:32 PM EST
Moon 9:54 PM EST (2/18) 8:43 AM EST (2/18)
Length of Visible Light 11h 45m
Length of Day
10h 50m
Waning Gibbous, 87% of the Moon is Illuminated
Feb 18
Waning Gibbous
Feb 22
Last Quarter
Mar 1
New
Mar 8
First Quarter
Mar 16
Full

Hourly Weather History & Observations

Time (EST) Temp. Windchill Dew Point Humidity Pressure Visibility Wind Dir Wind Speed Gust Speed Precip Events Conditions
12:01 AM 34.0 °F 23.8 °F 30.9 °F 89% 29.78 in 3.0 mi SSW 16.1 mph 27.6 mph 0.00 in Snow Light Snow
12:09 AM 34.0 °F 23.4 °F 32.0 °F 92% 29.78 in 5.0 mi SSW 17.3 mph - 0.00 in Rain Light Rain
12:53 AM 36.0 °F 26.7 °F 33.1 °F 89% 29.84 in 9.0 mi SW 15.0 mph 27.6 mph 0.01 in Rain Light Rain
1:04 AM 36.0 °F 24.4 °F 32.0 °F 86% 29.80 in 10.0 mi SW 23.0 mph 32.2 mph 0.00 in Rain Light Rain
1:53 AM 37.0 °F 25.9 °F 28.0 °F 70% 29.87 in 10.0 mi WSW 23.0 mph 51.8 mph 0.00 in Rain Light Rain
2:53 AM 35.1 °F 26.4 °F 28.9 °F 78% 29.86 in 5.0 mi WSW 12.7 mph 27.6 mph 0.00 in Snow Light Snow
3:13 AM 34.0 °F 22.4 °F 30.0 °F 85% 29.81 in 2.0 mi SW 20.7 mph 27.6 mph 0.00 in Snow Light Snow
3:42 AM 34.0 °F 23.0 °F 30.0 °F 85% 29.80 in 4.0 mi SSW 18.4 mph 28.8 mph 0.00 in Snow Light Snow
3:53 AM 34.0 °F 21.5 °F 30.0 °F 85% 29.84 in 3.0 mi SSW 24.2 mph 33.4 mph 0.00 in Snow Light Snow
4:05 AM 34.0 °F 21.8 °F 28.9 °F 82% 29.80 in 4.0 mi SW 23.0 mph 40.3 mph 0.01 in Snow Light Snow
4:14 AM 35.1 °F 23.8 °F 28.9 °F 78% 29.80 in 7.0 mi SW 20.7 mph 32.2 mph 0.01 in Snow Light Snow
4:53 AM 36.0 °F 23.9 °F 28.0 °F 73% 29.85 in 5.0 mi SW 25.3 mph 38.0 mph 0.01 in Snow Light Snow
5:19 AM 35.1 °F 21.8 °F 28.9 °F 78% 29.81 in 2.5 mi SW 29.9 mph 43.7 mph 0.00 in Snow Light Snow
5:26 AM 36.0 °F 24.2 °F 28.0 °F 73% 29.81 in 4.0 mi SW 24.2 mph 43.7 mph 0.00 in Snow Light Snow
5:53 AM 36.0 °F 24.7 °F 28.0 °F 73% 29.86 in 8.0 mi WSW 21.9 mph 46.0 mph 0.00 in   Overcast
6:53 AM 36.0 °F 25.3 °F 28.0 °F 73% 29.90 in 8.0 mi West 19.6 mph 32.2 mph 0.00 in   Overcast
7:53 AM 36.0 °F 24.4 °F 27.0 °F 70% 29.96 in 10.0 mi WSW 23.0 mph 39.1 mph 0.00 in   Overcast
8:53 AM 36.0 °F 26.7 °F 28.0 °F 73% 30.01 in 10.0 mi West 15.0 mph 26.5 mph 0.00 in   Overcast
9:53 AM 35.1 °F 25.5 °F 28.0 °F 76% 30.04 in 10.0 mi West 15.0 mph - N/A   Overcast
10:53 AM 36.0 °F 26.7 °F 27.0 °F 70% 30.07 in 10.0 mi West 15.0 mph 24.2 mph N/A   Overcast
11:53 AM 37.0 °F 27.4 °F 27.0 °F 67% 30.08 in 10.0 mi WSW 17.3 mph 25.3 mph N/A   Overcast
12:53 PM 39.0 °F 29.3 °F 27.0 °F 62% 30.08 in 10.0 mi West 19.6 mph 26.5 mph N/A   Mostly Cloudy
1:53 PM 41.0 °F 31.9 °F 27.0 °F 57% 30.07 in 10.0 mi WSW 19.6 mph 29.9 mph N/A   Clear
2:53 PM 44.1 °F 38.1 °F 26.1 °F 49% 30.06 in 10.0 mi WSW 11.5 mph 25.3 mph N/A   Clear
3:53 PM 45.0 °F 40.1 °F 24.1 °F 44% 30.06 in 10.0 mi WSW 9.2 mph - N/A   Clear
4:53 PM 45.0 °F 38.5 °F 24.1 °F 44% 30.04 in 10.0 mi SSW 13.8 mph - N/A   Clear
5:53 PM 43.0 °F 38.8 °F 23.0 °F 45% 30.04 in 10.0 mi SSW 6.9 mph - N/A   Clear
6:53 PM 42.1 °F 38.4 °F 21.9 °F 45% 30.03 in 10.0 mi SSE 5.8 mph - N/A   Clear
7:53 PM 39.9 °F 35.1 °F 21.9 °F 49% 30.00 in 10.0 mi SE 6.9 mph - N/A   Clear
8:53 PM 41.0 °F 35.2 °F 21.0 °F 45% 29.97 in 10.0 mi SSE 9.2 mph - N/A   Clear
9:53 PM 41.0 °F 33.9 °F 19.9 °F 43% 29.96 in 10.0 mi SSE 12.7 mph - N/A   Clear
10:53 PM 41.0 °F 34.7 °F 19.9 °F 43% 29.92 in 10.0 mi SSE 10.4 mph - N/A   Clear
11:53 PM 42.1 °F 35.7 °F 19.9 °F 41% 29.89 in 10.0 mi South 11.5 mph - N/A   Clear